SCP
0 0 -0 -0 0 0 0 0 0 0 0 0 0 0 0 0 0 0 0 0 0 0 0 0 1 1 1 1 1 1 1 0 0 0 0 0 0 0 0 0 0 0 0 0 0 0 0 0 0
0 0 -0 0 0 0 0 0 0 0 0 0 0 0 0 0 0 0 0 0 0 0 0 0 1 2 1 1 1 1 1 0 0 0 0 0 0 0 0 0 0 0 0 0 0 0 0 0 0
-0 -0 0 0 0 0 0 0 0 0 0 0 0 0 0 0 0 0 0 0 0 0 0 0 0 1 1 1 1 1 1 0 0 0 0 0 0 0 0 0 0 0 0 0 0 0 0 0 0
-0 0 0 0 0 0 0 0 0 0 0 0 0 0 0 0 0 0 0 0 0 0 0 0 0 0 1 1 1 1 0 0 0 0 0 0 0 0 0 0 0 0 0 0 0 0 0 0 0
-0 0 0 0 0 0 0 0 0 -0 -0 0 0 0 0 0 0 0 0 0 0 0 0 0 0 0 0 1 1 0 0 0 0 0 0 0 0 0 0 0 0 0 0 0 0 0 0 0 0
0 0 0 0 0 0 0 0 0 -0 -0 0 0 0 0 0 0 0 0 0 0 0 0 0 0 0 0 0 0 0 0 0 0 0 0 0 0 0 0 0 0 0 0 0 0 0 0 0 0
0 0 0 0 0 0 0 0 0 0 0 0 0 0 0 0 0 0 0 0 0 0 0 0 0 0 0 0 0 0 0 0 0 0 0 0 0 0 0 0 0 0 0 0 0 0 0 0 0
0 0 0 0 0 0 0 0 0 0 0 0 0 0 0 0 0 0 0 0 0 0 0 0 0 0 0 0 0 0 0 0 0 0 0 0 0 0 0 0 0 0 0 0 0 0 0 0 0
0 0 0 0 0 0 0 0 0 0 0 0 0 0 0 0 0 0 0 0 0 0 0 0 0 0 0 0 0 0 0 0 0 0 0 0 0 0 0 0 0 0 0 0 0 0 0 0 0
0 0 0 0 0 0 0 0 0 0 0 0 0 0 0 0 0 0 0 0 0 0 0 0 0 0 0 0 0 0 0 0 0 0 0 0 0 0 0 0 0 0 0 0 0 0 0 0 0
0 0 0 0 0 0 -0 0 -0 0 0 0 0 0 0 0 0 0 0 0 0 0 0 0 0 0 0 0 0 0 0 0 0 0 0 0 0 0 0 0 0 0 0 0 0 0 0 0 0
0 0 0 0 0 0 0 0 0 0 -0 0 0 0 0 0 0 0 0 0 0 0 0 0 0 0 0 0 0 0 0 0 0 0 0 0 0 0 0 0 0 0 0 0 0 0 0 0 0
0 0 0 0 0 0 0 0 0 0 0 0 0 0 0 0 0 0 0 0 0 0 0 0 0 0 0 0 0 0 0 0 0 0 0 0 0 0 -0 -0 0 0 0 0 0 0 0 0 0
0 0 -0 0 0 0 0 0 0 -0 0 0 0 0 0 0 0 0 0 0 0 0 0 0 0 0 0 0 0 0 0 0 0 0 0 0 0 0 -0 -0 0 0 0 0 0 0 0 1 0
0 0 0 0 0 0 0 0 0 0 0 0 0 0 0 0 0 0 0 0 0 0 0 0 0 0 0 0 0 0 0 0 0 0 0 0 0 0 -0 -0 0 0 0 0 0 0 0 0 0
0 0 0 0 0 0 0 0 0 0 0 0 0 0 0 0 0 0 0 0 0 0 0 0 0 0 0 0 0 0 0 0 0 0 0 -0 -0 -0 -0 0 -0 0 0 0 0 0 0 0 1
0 0 0 0 0 0 0 0 0 0 0 0 0 0 0 0 0 0 0 0 0 0 0 0 0 0 0 0 0 0 0 0 0 0 -0 -0 -0 -0 -0 0 0 0 0 0 0 1 0 1 0
0 0 0 0 0 0 0 0 -0 0 0 0 0 0 0 0 0 0 0 0 0 0 0 0 0 0 0 0 0 0 0 0 0 0 0 -0 0 -0 0 0 0 0 0 0 0 0 1 0 0
0 0 0 0 0 0 0 0 0 0 0 0 0 0 0 0 0 0 0 0 0 0 0 0 0 0 0 0 0 0 0 0 0 0 0 0 -0 0 0 0 0 0 0 0 0 0 0 1 1
0 0 0 0 0 0 0 0 0 0 0 0 0 0 0 0 0 0 0 0 0 0 0 0 0 0 0 0 0 0 0 0 0 0 0 0 -0 0 0 0 0 0 0 0 0 0 0 1 1
0 0 0 0 -0 -0 -0 -0 0 0 0 0 0 0 0 0 0 0 0 0 0 0 0 0 0 0 0 0 0 0 0 0 0 0 0 0 -0 -0 0 0 0 0 0 0 0 0 0 0 1
0 0 -0 0 0 0 0 -0 0 0 0 0 0 0 0 0 0 0 0 0 0 0 0 0 0 -0 0 0 0 0 0 0 0 0 0 0 0 -0 -0 0 0 0 0 0 0 0 0 0 1
0 0 0 -0 0 0 0 0 0 0 0 0 0 0 0 0 0 0 0 0 0 0 0 0 0 -0 0 -0 -0 0 0 0 -0 0 -0 0 0 -0 0 0 0 0 0 0 0 0 0 1 1
0 0 0 0 0 0 0 0 0 0 0 0 0 0 0 0 0 0 0 0 0 0 0 0 0 0 0 0 0 0 0 0 -0 -0 -0 0 0 0 0 0 0 0 0 0 0 0 0 0 1
0 0 0 0 0 0 0 0 0 0 0 0 0 0 0 0 0 -0 -0 0 0 0 0 0 0 0 0 0 0 0 0 0 0 0 -0 0 0 0 0 0 0 0 0 0 0 0 0 1 1
0 0 0 0 0 0 0 0 0 0 0 0 0 0 0 -0 -0 -0 -0 0 -0 -0 0 0 0 0 -0 0 0 0 0 0 0 0 -0 0 0 0 0 0 0 0 0 0 0 1 1 0 1
0 0 0 0 -0 0 0 0 0 -0 -0 0 0 0 -0 -0 -0 -0 -0 -0 -0 -0 -0 0 0 0 0 -0 0 0 0 -0 0 0 0 0 0 0 0 0 0 0 0 0 0 0 0 0 0
0 0 0 0 0 0 0 0 -0 0 0 0 0 0 -0 -0 -0 -0 -0 -0 -0 -0 -0 0 0 0 -0 -0 -0 0 0 -0 0 0 0 0 0 0 0 0 0 0 0 0 0 0 0 0 0
0 0 0 -0 0 0 0 0 0 -0 0 0 0 0 -0 -0 -0 -0 -0 -0 -0 -0 -0 0 0 0 -0 -0 -0 -0 0 -0 -0 0 0 0 0 0 0 0 0 0 0 0 0 0 0 -0 -0
0 0 0 0 0 0 -0 0 0 0 0 -0 0 0 -0 -0 -0 -0 -0 -0 -0 -0 -0 -0 0 0 -0 -0 -0 -0 -0 0 -0 -0 -0 0 0 0 0 0 0 0 0 0 0 0 0 0 0
Wind_Speed_500mb
19 15 8 5 13 11 14 5 10 11 8 5 11 8 10 12 10 13 2 5 6 6 13 23 26 33 40 39 37 39 38 38 39 43 44 41 37 31 29 30 33 33 28 24 22 25 24 30 31
16 10 5 9 14 15 3 8 12 13 4 8 9 9 12 8 8 8 7 10 9 9 18 17 29 30 33 32 34 36 40 43 45 48 50 47 41 38 31 34 34 32 31 29 27 24 27 27 31
12 9 22 9 11 16 10 10 13 9 11 14 7 8 2 2 8 6 9 9 9 12 15 21 33 26 26 32 39 44 43 45 48 49 54 48 44 43 42 34 39 33 30 27 29 24 27 29 31
6 10 12 18 15 2 14 19 16 14 11 14 11 9 4 8 7 9 10 11 11 16 21 27 31 33 36 39 44 46 46 48 49 49 51 51 50 47 46 44 36 36 35 30 33 26 28 30 30
8 14 18 15 16 9 13 19 17 17 11 5 11 7 6 7 13 11 9 13 14 19 24 26 39 37 39 43 45 44 49 51 52 53 54 54 54 52 51 47 39 37 36 32 34 37 30 29 34
22 12 18 23 7 8 12 15 15 15 15 6 11 11 9 10 12 11 11 13 16 16 30 24 29 36 39 42 46 50 52 54 56 60 62 65 62 58 54 52 45 39 41 37 35 31 38 29 30
28 15 27 21 21 18 9 14 14 15 16 17 9 12 3 14 17 16 15 19 18 23 20 22 28 33 36 39 44 48 53 57 63 69 69 63 63 58 55 54 48 42 42 38 39 38 41 37 33
22 16 30 26 21 20 6 8 11 16 17 5 13 11 12 18 17 17 9 9 11 17 22 27 29 27 27 26 39 42 49 53 58 60 57 52 49 49 52 54 47 45 40 40 37 39 37 43 35
14 20 23 23 23 21 12 22 4 10 16 14 17 16 10 14 12 14 11 12 15 20 24 26 24 23 26 27 29 39 39 39 39 37 37 39 30 28 29 36 44 51 49 41 31 36 41 41 40
23 21 30 16 21 28 36 20 32 13 14 23 20 15 20 17 17 16 14 14 17 21 24 23 23 28 29 24 29 28 28 26 25 24 26 30 31 31 32 38 45 40 48 45 35 37 41 38 35
29 27 29 28 30 37 38 24 22 22 20 23 21 24 25 23 22 19 14 12 15 19 21 20 25 31 29 23 25 22 24 21 21 22 23 21 21 24 25 27 38 46 40 39 33 31 34 32 37
29 36 37 30 24 19 14 14 17 28 25 7 17 17 30 30 26 19 13 9 14 19 20 18 24 29 25 24 18 23 22 19 21 16 16 17 12 15 22 26 32 46 41 36 32 30 32 39 38
29 36 34 29 25 17 9 20 18 25 19 19 18 25 32 28 25 19 12 8 12 17 16 18 26 25 20 20 18 19 18 16 17 18 12 13 6 7 8 14 32 39 34 32 30 31 34 36 38
30 25 33 25 21 12 15 8 10 18 10 21 25 29 30 31 28 20 12 7 10 14 13 19 21 20 18 18 19 18 18 16 15 15 11 11 8 5 1 5 20 29 32 31 33 31 34 35 34
28 26 25 27 21 11 11 18 20 21 13 25 31 30 32 31 27 21 15 8 7 10 12 19 20 19 19 19 18 15 16 17 14 13 15 14 8 4 5 10 17 26 36 36 33 35 35 37 33
21 26 28 24 16 11 13 23 26 10 22 31 33 34 34 33 30 22 16 9 4 7 11 18 18 20 21 20 18 14 14 16 17 17 15 16 14 10 6 8 17 23 30 33 31 34 35 34 34
27 28 31 17 19 9 20 27 21 12 24 30 33 36 37 34 32 27 20 12 3 6 9 15 16 20 25 18 15 16 16 15 15 14 15 17 18 17 12 9 14 23 27 34 39 41 40 37 35
28 30 18 24 14 19 22 30 27 35 32 30 34 37 40 39 36 30 23 14 4 5 8 14 14 23 25 19 19 17 17 18 16 18 18 15 13 14 13 14 17 21 26 30 37 41 37 33 33
21 23 27 19 13 19 27 25 29 38 33 30 32 37 43 40 33 30 25 16 7 4 6 10 12 21 22 19 19 19 17 15 12 17 16 18 20 17 16 18 21 22 24 29 33 35 39 39 38
28 32 32 17 20 14 27 31 33 31 27 24 28 35 39 37 38 34 27 19 9 4 2 6 10 18 20 17 22 18 17 15 25 16 20 9 15 12 16 18 20 27 30 31 35 39 42 40 52
35 35 27 22 21 23 25 33 15 16 17 22 24 28 34 42 43 38 32 23 13 6 3 1 7 16 18 22 20 21 17 20 27 39 35 22 7 12 13 16 18 24 30 34 37 41 46 59 51
41 30 29 26 23 22 5 26 22 17 18 18 19 24 31 39 42 39 35 26 18 11 9 4 6 12 15 22 21 23 14 12 21 29 32 37 26 21 13 15 24 23 29 38 42 47 54 56 57
36 26 26 29 23 22 30 14 17 10 16 12 14 16 23 35 44 42 37 27 21 16 12 6 4 10 13 19 22 19 16 17 13 21 29 29 26 21 18 19 19 27 33 41 45 49 45 54 60
32 16 20 16 21 22 29 17 18 7 7 18 6 4 17 33 43 40 35 28 24 20 14 9 5 9 9 12 20 23 19 22 23 8 18 23 25 25 21 19 31 32 31 35 41 44 53 57 44
35 28 19 20 19 22 4 12 21 18 16 16 18 18 16 36 47 45 40 32 28 25 18 12 8 6 11 12 14 20 23 24 24 18 24 24 24 26 28 21 35 31 36 34 41 46 47 42 47
42 37 22 21 22 21 13 13 7 1 7 12 12 9 22 42 48 46 41 33 29 27 23 16 10 8 10 11 12 16 24 20 27 24 29 25 23 32 24 22 31 36 35 38 37 38 36 36 36
31 36 35 32 28 16 22 10 22 10 9 7 1 9 29 44 47 45 40 34 31 29 25 20 13 10 10 9 10 13 19 30 34 33 28 17 18 22 23 28 33 35 33 28 32 31 34 34 34
40 31 21 20 28 29 16 13 14 11 5 8 11 18 33 43 47 46 42 36 33 30 26 22 15 10 12 11 10 12 16 20 29 25 24 23 23 30 29 26 27 36 27 31 32 38 37 30 29
25 32 28 25 26 24 20 11 10 5 1 6 10 26 38 45 49 49 43 38 36 32 27 22 18 14 15 13 11 14 15 16 20 22 24 25 27 30 37 34 23 21 25 38 34 34 31 33 33
46 44 41 26 32 20 21 18 19 11 9 8 6 25 39 47 48 46 45 41 39 36 30 25 21 17 17 17 15 14 15 15 19 21 25 24 33 38 36 29 26 33 27 28 29 27 27 33 31
Wind_Direction_500mb
136 131 144 201 237 239 250 153 330 273 213 128 140 213 283 309 287 323 54 221 226 220 251 280 292 289 278 278 287 289 289 288 288 294 298 296 297 295 288 284 272 266 253 241 253 248 227 223 215
147 134 228 258 255 242 174 18 306 355 84 174 188 206 239 275 224 251 254 229 223 253 278 272 290 302 282 279 275 276 274 275 275 281 285 287 290 294 287 271 267 262 252 240 234 240 233 230 215
149 212 267 256 260 268 330 351 317 337 199 213 225 271 296 147 185 183 197 193 230 266 278 287 304 293 275 271 270 274 276 275 275 276 279 280 282 285 289 285 260 252 250 245 232 234 244 223 220
171 228 232 254 251 356 299 323 317 284 217 228 251 243 194 192 169 201 214 250 265 281 283 287 287 281 274 271 272 274 275 275 272 272 274 277 278 275 273 279 268 246 241 231 233 223 230 236 223
217 252 261 252 262 291 290 305 297 275 262 242 230 282 270 229 212 216 239 268 281 284 284 293 290 280 275 267 274 275 277 274 274 273 272 273 272 268 269 264 263 245 238 238 230 220 223 227 229
235 269 249 254 257 275 317 330 286 264 267 179 238 260 279 211 202 224 246 272 281 292 303 297 295 290 280 272 272 277 279 279 278 277 277 277 274 266 257 259 253 243 237 236 238 226 221 225 225
256 253 267 289 279 283 8 332 268 289 268 238 247 258 302 210 211 237 259 277 288 302 307 300 297 292 292 282 275 277 277 276 277 279 278 273 270 263 255 251 249 241 233 235 237 229 221 222 218
261 275 270 259 276 293 4 284 282 266 281 146 202 260 248 211 230 242 232 254 298 314 307 304 301 295 288 284 286 285 286 285 282 279 275 270 265 269 254 245 240 231 228 230 240 231 221 220 219
243 262 262 268 277 295 292 284 208 274 242 222 217 249 244 220 220 197 225 278 301 309 311 311 306 297 298 292 289 298 293 295 289 281 276 273 271 260 254 246 234 227 230 229 233 226 213 220 219
228 251 263 284 295 285 295 291 300 236 222 234 229 226 233 217 195 214 245 282 302 313 312 311 306 311 309 301 294 297 297 302 303 288 278 278 266 257 249 240 233 228 230 233 230 222 211 223 218
231 254 278 275 273 293 290 286 268 255 266 257 247 225 210 205 204 219 244 274 304 316 319 307 315 318 312 299 295 296 291 296 297 308 297 290 281 260 255 247 239 228 226 222 231 228 216 214 213
243 251 262 270 294 284 269 273 252 249 282 296 244 224 204 205 206 217 231 275 308 320 322 323 321 319 311 311 301 292 304 294 306 295 306 297 290 271 261 247 222 214 214 211 211 209 209 213 197
234 267 255 270 267 245 249 249 275 281 280 248 235 208 209 206 208 211 217 274 317 327 322 327 326 322 314 316 296 300 307 306 293 297 292 311 296 291 273 227 201 193 202 212 204 202 207 202 186
252 267 256 262 238 210 239 259 269 296 249 229 221 219 212 206 205 208 217 255 314 323 322 329 329 321 315 317 310 308 309 316 309 298 291 269 285 297 100 185 177 177 189 194 198 198 196 187 180
252 254 243 236 218 234 256 252 244 284 222 233 227 222 213 208 208 211 216 229 307 328 319 337 332 326 323 324 317 309 308 314 298 295 278 264 265 265 173 157 170 178 186 183 185 185 181 178 178
232 231 232 180 205 182 226 274 276 257 219 234 229 222 214 210 208 210 213 216 296 322 326 340 334 341 329 317 318 306 299 306 300 287 272 263 266 266 247 184 176 179 181 177 177 175 173 177 175
217 242 219 227 209 215 222 287 296 281 250 257 238 226 219 212 207 208 210 213 260 315 326 341 336 345 351 330 325 314 315 317 311 297 275 255 253 258 251 213 188 176 176 174 169 169 173 173 170
225 221 233 253 203 231 265 273 280 281 249 256 254 233 222 215 213 208 204 204 222 311 317 340 336 345 351 348 342 331 322 314 312 296 295 271 255 246 235 198 181 175 171 168 165 164 162 167 166
269 251 249 252 271 268 279 289 287 284 271 258 252 229 224 217 210 203 199 200 208 302 318 318 332 349 357 0 356 350 360 360 330 330 306 299 247 228 212 198 196 179 176 167 168 162 162 162 161
230 240 245 248 268 273 286 288 293 283 270 265 245 228 221 210 201 199 196 196 196 230 311 326 341 358 9 357 0 11 29 36 30 11 14 35 182 192 192 188 187 189 180 169 169 165 159 161 162
225 239 242 258 300 262 261 276 264 273 244 250 246 235 219 208 199 195 193 193 187 194 192 17 7 34 29 29 16 29 43 53 54 63 50 60 114 160 186 192 181 178 185 177 170 168 165 157 167
227 219 258 261 265 282 3 293 282 274 275 256 245 225 216 204 198 193 188 187 185 178 171 120 41 55 30 38 18 31 53 49 59 61 60 57 69 114 117 167 188 190 183 179 172 165 163 161 164
238 233 233 257 267 284 261 254 288 242 279 292 279 207 209 200 194 188 184 182 178 171 171 157 78 58 47 38 35 34 32 31 69 64 61 44 56 107 107 140 147 153 164 164 165 163 160 163 164
225 206 227 245 256 248 255 248 277 273 312 318 317 116 197 188 186 184 180 176 175 169 167 162 124 79 63 46 38 46 35 39 38 69 49 46 64 84 94 103 137 145 149 160 160 158 157 162 157
219 214 225 221 219 250 153 246 258 307 312 322 306 312 189 179 179 178 178 178 175 173 172 167 143 101 82 59 46 47 42 43 27 59 101 71 77 74 71 100 130 143 144 157 162 160 161 158 162
203 208 230 225 244 251 154 252 222 317 310 290 312 314 169 172 176 177 179 179 175 174 173 167 145 133 108 80 54 53 52 33 30 74 108 98 67 63 67 97 127 136 140 147 157 155 162 163 167
190 219 226 255 267 273 273 194 256 254 250 215 236 141 163 169 174 176 179 179 176 175 178 172 155 147 123 101 75 70 59 58 79 84 99 82 58 55 72 101 107 121 120 136 143 155 163 168 180
218 202 201 224 241 238 237 234 268 227 346 99 170 169 170 169 173 176 180 181 177 175 177 177 167 153 143 122 101 89 79 71 81 85 72 82 92 73 75 107 120 128 119 121 144 152 157 167 168
190 221 215 250 226 235 243 254 107 273 203 338 167 174 176 177 179 177 180 182 179 176 178 177 172 162 152 139 121 105 102 85 90 84 80 84 98 111 92 97 112 128 127 126 126 134 149 173 176
201 214 207 222 214 244 274 258 146 249 252 280 196 176 182 179 181 182 178 181 181 181 183 182 175 168 157 152 144 124 114 110 102 91 93 86 94 104 108 121 113 104 113 137 141 135 130 143 146
Wind_Speed_850mb
19 15 8 5 13 11 14 5 10 11 8 5 11 8 10 12 10 13 2 5 6 6 13 23 26 33 40 39 37 39 38 38 39 43 44 41 37 31 29 30 33 33 28 24 22 25 24 30 31
16 10 5 9 14 15 3 8 12 13 4 8 9 9 12 8 8 8 7 10 9 9 18 17 29 30 33 32 34 36 40 43 45 48 50 47 41 38 31 34 34 32 31 29 27 24 27 27 31
12 9 22 9 11 16 10 10 13 9 11 14 7 8 2 2 8 6 9 9 9 12 15 21 33 26 26 32 39 44 43 45 48 49 54 48 44 43 42 34 39 33 30 27 29 24 27 29 31
6 10 12 18 15 2 14 19 16 14 11 14 11 9 4 8 7 9 10 11 11 16 21 27 31 33 36 39 44 46 46 48 49 49 51 51 50 47 46 44 36 36 35 30 33 26 28 30 30
8 14 18 15 16 9 13 19 17 17 11 5 11 7 6 7 13 11 9 13 14 19 24 26 39 37 39 43 45 44 49 51 52 53 54 54 54 52 51 47 39 37 36 32 34 37 30 29 34
22 12 18 23 7 8 12 15 15 15 15 6 11 11 9 10 12 11 11 13 16 16 30 24 29 36 39 42 46 50 52 54 56 60 62 65 62 58 54 52 45 39 41 37 35 31 38 29 30
28 15 27 21 21 18 9 14 14 15 16 17 9 12 3 14 17 16 15 19 18 23 20 22 28 33 36 39 44 48 53 57 63 69 69 63 63 58 55 54 48 42 42 38 39 38 41 37 33
22 16 30 26 21 20 6 8 11 16 17 5 13 11 12 18 17 17 9 9 11 17 22 27 29 27 27 26 39 42 49 53 58 60 57 52 49 49 52 54 47 45 40 40 37 39 37 43 35
14 20 23 23 23 21 12 22 4 10 16 14 17 16 10 14 12 14 11 12 15 20 24 26 24 23 26 27 29 39 39 39 39 37 37 39 30 28 29 36 44 51 49 41 31 36 41 41 40
23 21 30 16 21 28 36 20 32 13 14 23 20 15 20 17 17 16 14 14 17 21 24 23 23 28 29 24 29 28 28 26 25 24 26 30 31 31 32 38 45 40 48 45 35 37 41 38 35
29 27 29 28 30 37 38 24 22 22 20 23 21 24 25 23 22 19 14 12 15 19 21 20 25 31 29 23 25 22 24 21 21 22 23 21 21 24 25 27 38 46 40 39 33 31 34 32 37
29 36 37 30 24 19 14 14 17 28 25 7 17 17 30 30 26 19 13 9 14 19 20 18 24 29 25 24 18 23 22 19 21 16 16 17 12 15 22 26 32 46 41 36 32 30 32 39 38
29 36 34 29 25 17 9 20 18 25 19 19 18 25 32 28 25 19 12 8 12 17 16 18 26 25 20 20 18 19 18 16 17 18 12 13 6 7 8 14 32 39 34 32 30 31 34 36 38
30 25 33 25 21 12 15 8 10 18 10 21 25 29 30 31 28 20 12 7 10 14 13 19 21 20 18 18 19 18 18 16 15 15 11 11 8 5 1 5 20 29 32 31 33 31 34 35 34
28 26 25 27 21 11 11 18 20 21 13 25 31 30 32 31 27 21 15 8 7 10 12 19 20 19 19 19 18 15 16 17 14 13 15 14 8 4 5 10 17 26 36 36 33 35 35 37 33
21 26 28 24 16 11 13 23 26 10 22 31 33 34 34 33 30 22 16 9 4 7 11 18 18 20 21 20 18 14 14 16 17 17 15 16 14 10 6 8 17 23 30 33 31 34 35 34 34
27 28 31 17 19 9 20 27 21 12 24 30 33 36 37 34 32 27 20 12 3 6 9 15 16 20 25 18 15 16 16 15 15 14 15 17 18 17 12 9 14 23 27 34 39 41 40 37 35
28 30 18 24 14 19 22 30 27 35 32 30 34 37 40 39 36 30 23 14 4 5 8 14 14 23 25 19 19 17 17 18 16 18 18 15 13 14 13 14 17 21 26 30 37 41 37 33 33
21 23 27 19 13 19 27 25 29 38 33 30 32 37 43 40 33 30 25 16 7 4 6 10 12 21 22 19 19 19 17 15 12 17 16 18 20 17 16 18 21 22 24 29 33 35 39 39 38
28 32 32 17 20 14 27 31 33 31 27 24 28 35 39 37 38 34 27 19 9 4 2 6 10 18 20 17 22 18 17 15 25 16 20 9 15 12 16 18 20 27 30 31 35 39 42 40 52
35 35 27 22 21 23 25 33 15 16 17 22 24 28 34 42 43 38 32 23 13 6 3 1 7 16 18 22 20 21 17 20 27 39 35 22 7 12 13 16 18 24 30 34 37 41 46 59 51
41 30 29 26 23 22 5 26 22 17 18 18 19 24 31 39 42 39 35 26 18 11 9 4 6 12 15 22 21 23 14 12 21 29 32 37 26 21 13 15 24 23 29 38 42 47 54 56 57
36 26 26 29 23 22 30 14 17 10 16 12 14 16 23 35 44 42 37 27 21 16 12 6 4 10 13 19 22 19 16 17 13 21 29 29 26 21 18 19 19 27 33 41 45 49 45 54 60
32 16 20 16 21 22 29 17 18 7 7 18 6 4 17 33 43 40 35 28 24 20 14 9 5 9 9 12 20 23 19 22 23 8 18 23 25 25 21 19 31 32 31 35 41 44 53 57 44
35 28 19 20 19 22 4 12 21 18 16 16 18 18 16 36 47 45 40 32 28 25 18 12 8 6 11 12 14 20 23 24 24 18 24 24 24 26 28 21 35 31 36 34 41 46 47 42 47
42 37 22 21 22 21 13 13 7 1 7 12 12 9 22 42 48 46 41 33 29 27 23 16 10 8 10 11 12 16 24 20 27 24 29 25 23 32 24 22 31 36 35 38 37 38 36 36 36
31 36 35 32 28 16 22 10 22 10 9 7 1 9 29 44 47 45 40 34 31 29 25 20 13 10 10 9 10 13 19 30 34 33 28 17 18 22 23 28 33 35 33 28 32 31 34 34 34
40 31 21 20 28 29 16 13 14 11 5 8 11 18 33 43 47 46 42 36 33 30 26 22 15 10 12 11 10 12 16 20 29 25 24 23 23 30 29 26 27 36 27 31 32 38 37 30 29
25 32 28 25 26 24 20 11 10 5 1 6 10 26 38 45 49 49 43 38 36 32 27 22 18 14 15 13 11 14 15 16 20 22 24 25 27 30 37 34 23 21 25 38 34 34 31 33 33
46 44 41 26 32 20 21 18 19 11 9 8 6 25 39 47 48 46 45 41 39 36 30 25 21 17 17 17 15 14 15 15 19 21 25 24 33 38 36 29 26 33 27 28 29 27 27 33 31
Wind_Direction_850mb
136 131 144 201 237 239 250 153 330 273 213 128 140 213 283 309 287 323 54 221 226 220 251 280 292 289 278 278 287 289 289 288 288 294 298 296 297 295 288 284 272 266 253 241 253 248 227 223 215
147 134 228 258 255 242 174 18 306 355 84 174 188 206 239 275 224 251 254 229 223 253 278 272 290 302 282 279 275 276 274 275 275 281 285 287 290 294 287 271 267 262 252 240 234 240 233 230 215
149 212 267 256 260 268 330 351 317 337 199 213 225 271 296 147 185 183 197 193 230 266 278 287 304 293 275 271 270 274 276 275 275 276 279 280 282 285 289 285 260 252 250 245 232 234 244 223 220
171 228 232 254 251 356 299 323 317 284 217 228 251 243 194 192 169 201 214 250 265 281 283 287 287 281 274 271 272 274 275 275 272 272 274 277 278 275 273 279 268 246 241 231 233 223 230 236 223
217 252 261 252 262 291 290 305 297 275 262 242 230 282 270 229 212 216 239 268 281 284 284 293 290 280 275 267 274 275 277 274 274 273 272 273 272 268 269 264 263 245 238 238 230 220 223 227 229
235 269 249 254 257 275 317 330 286 264 267 179 238 260 279 211 202 224 246 272 281 292 303 297 295 290 280 272 272 277 279 279 278 277 277 277 274 266 257 259 253 243 237 236 238 226 221 225 225
256 253 267 289 279 283 8 332 268 289 268 238 247 258 302 210 211 237 259 277 288 302 307 300 297 292 292 282 275 277 277 276 277 279 278 273 270 263 255 251 249 241 233 235 237 229 221 222 218
261 275 270 259 276 293 4 284 282 266 281 146 202 260 248 211 230 242 232 254 298 314 307 304 301 295 288 284 286 285 286 285 282 279 275 270 265 269 254 245 240 231 228 230 240 231 221 220 219
243 262 262 268 277 295 292 284 208 274 242 222 217 249 244 220 220 197 225 278 301 309 311 311 306 297 298 292 289 298 293 295 289 281 276 273 271 260 254 246 234 227 230 229 233 226 213 220 219
228 251 263 284 295 285 295 291 300 236 222 234 229 226 233 217 195 214 245 282 302 313 312 311 306 311 309 301 294 297 297 302 303 288 278 278 266 257 249 240 233 228 230 233 230 222 211 223 218
231 254 278 275 273 293 290 286 268 255 266 257 247 225 210 205 204 219 244 274 304 316 319 307 315 318 312 299 295 296 291 296 297 308 297 290 281 260 255 247 239 228 226 222 231 228 216 214 213
243 251 262 270 294 284 269 273 252 249 282 296 244 224 204 205 206 217 231 275 308 320 322 323 321 319 311 311 301 292 304 294 306 295 306 297 290 271 261 247 222 214 214 211 211 209 209 213 197
234 267 255 270 267 245 249 249 275 281 280 248 235 208 209 206 208 211 217 274 317 327 322 327 326 322 314 316 296 300 307 306 293 297 292 311 296 291 273 227 201 193 202 212 204 202 207 202 186
252 267 256 262 238 210 239 259 269 296 249 229 221 219 212 206 205 208 217 255 314 323 322 329 329 321 315 317 310 308 309 316 309 298 291 269 285 297 100 185 177 177 189 194 198 198 196 187 180
252 254 243 236 218 234 256 252 244 284 222 233 227 222 213 208 208 211 216 229 307 328 319 337 332 326 323 324 317 309 308 314 298 295 278 264 265 265 173 157 170 178 186 183 185 185 181 178 178
232 231 232 180 205 182 226 274 276 257 219 234 229 222 214 210 208 210 213 216 296 322 326 340 334 341 329 317 318 306 299 306 300 287 272 263 266 266 247 184 176 179 181 177 177 175 173 177 175
217 242 219 227 209 215 222 287 296 281 250 257 238 226 219 212 207 208 210 213 260 315 326 341 336 345 351 330 325 314 315 317 311 297 275 255 253 258 251 213 188 176 176 174 169 169 173 173 170
225 221 233 253 203 231 265 273 280 281 249 256 254 233 222 215 213 208 204 204 222 311 317 340 336 345 351 348 342 331 322 314 312 296 295 271 255 246 235 198 181 175 171 168 165 164 162 167 166
269 251 249 252 271 268 279 289 287 284 271 258 252 229 224 217 210 203 199 200 208 302 318 318 332 349 357 0 356 350 360 360 330 330 306 299 247 228 212 198 196 179 176 167 168 162 162 162 161
230 240 245 248 268 273 286 288 293 283 270 265 245 228 221 210 201 199 196 196 196 230 311 326 341 358 9 357 0 11 29 36 30 11 14 35 182 192 192 188 187 189 180 169 169 165 159 161 162
225 239 242 258 300 262 261 276 264 273 244 250 246 235 219 208 199 195 193 193 187 194 192 17 7 34 29 29 16 29 43 53 54 63 50 60 114 160 186 192 181 178 185 177 170 168 165 157 167
227 219 258 261 265 282 3 293 282 274 275 256 245 225 216 204 198 193 188 187 185 178 171 120 41 55 30 38 18 31 53 49 59 61 60 57 69 114 117 167 188 190 183 179 172 165 163 161 164
238 233 233 257 267 284 261 254 288 242 279 292 279 207 209 200 194 188 184 182 178 171 171 157 78 58 47 38 35 34 32 31 69 64 61 44 56 107 107 140 147 153 164 164 165 163 160 163 164
225 206 227 245 256 248 255 248 277 273 312 318 317 116 197 188 186 184 180 176 175 169 167 162 124 79 63 46 38 46 35 39 38 69 49 46 64 84 94 103 137 145 149 160 160 158 157 162 157
219 214 225 221 219 250 153 246 258 307 312 322 306 312 189 179 179 178 178 178 175 173 172 167 143 101 82 59 46 47 42 43 27 59 101 71 77 74 71 100 130 143 144 157 162 160 161 158 162
203 208 230 225 244 251 154 252 222 317 310 290 312 314 169 172 176 177 179 179 175 174 173 167 145 133 108 80 54 53 52 33 30 74 108 98 67 63 67 97 127 136 140 147 157 155 162 163 167
190 219 226 255 267 273 273 194 256 254 250 215 236 141 163 169 174 176 179 179 176 175 178 172 155 147 123 101 75 70 59 58 79 84 99 82 58 55 72 101 107 121 120 136 143 155 163 168 180
218 202 201 224 241 238 237 234 268 227 346 99 170 169 170 169 173 176 180 181 177 175 177 177 167 153 143 122 101 89 79 71 81 85 72 82 92 73 75 107 120 128 119 121 144 152 157 167 168
190 221 215 250 226 235 243 254 107 273 203 338 167 174 176 177 179 177 180 182 179 176 178 177 172 162 152 139 121 105 102 85 90 84 80 84 98 111 92 97 112 128 127 126 126 134 149 173 176
201 214 207 222 214 244 274 258 146 249 252 280 196 176 182 179 181 182 178 181 181 181 183 182 175 168 157 152 144 124 114 110 102 91 93 86 94 104 108 121 113 104 113 137 141 135 130 143 146